This demonstration page uses our WeatherBlox Daily Observations layout. Learn more.

Left ArrowRight Arrow

38.83388, -104.82136

Hourly Observations for April 16, 2017

Temp ( °F °C ) Dew Point ( °F °C ) Humidity (%) Winds ( mph kmh ) Pressure ( in mb ) Visibility ( mi km ) Precip ( " mm )
12:58 am 00:58 Clear 49 9.6 27 -2.7 42 42 S 8 13 29.68 1005 10 16 0.00 0.00
1:58 am 01:58 Mostly Clear 49 9.2 27 -2.8 43 43 S 12 19 29.65 1004 10 16 0.00 0.00
2:58 am 02:58 Mostly Clear 48 8.9 23 -5 37 37 SSW 12 19 29.64 1004 10 16 0.00 0.00
3:58 am 03:58 Mostly Clear 47 8.2 21 -6.1 36 36 S 13 20 29.66 1005 10 16 0.00 0.00
4:58 am 04:58 Clear 45 7.2 21 -6.1 39 39 S 12 19 29.70 1006 10 16 0.00 0.00
5:58 am 05:58 Clear 43 6.1 20 -6.8 39 39 SSE 13 20 29.72 1007 10 16 0.00 0.00
6:58 am 06:58 Sunny 41 5.1 22 -5.7 46 46 SE 14 22 29.76 1008 10 16 0.00 0.00
7:58 am 07:58 Sunny 44 6.9 22 -5.3 42 42 SSE 17 28 29.76 1008 10 16 0.00 0.00
8:58 am 08:58 Sunny 49 9.4 24 -4.7 37 37 SSE 23 37 29.74 1007 10 16 0.00 0.00
9:58 am 09:58 Sunny 51 10.4 25 -4 36 36 SSE 24 39 29.74 1007 10 16 0.00 0.00
10:58 am 10:58 Sunny 53 11.5 26 -3.3 36 36 SSE 18 30 29.72 1006 10 16 0.00 0.00
11:58 am 11:58 Sunny 56 13.3 27 -3 32 32 SSE 22 35 29.71 1006 10 16 0.00 0.00
12:58 pm 12:58 Sunny 57 14.1 27 -2.6 32 32 SSE 13 20 29.70 1006 10 16 0.00 0.00
1:05 pm 13:05 Sunny 57 14 27 -3 31 31 SE 16 26 29.80 1009 10 16 0.00 0.00
1:53 pm 13:53 Sunny 59 15 27 -3 29 29 SSE 17 28 29.74 1007 10 16 0.00 0.00
1:58 pm 13:58 Sunny 60 15.6 28 -2.5 29 29 SSE 15 24 29.66 1005 10 16 0.00 0.00
2:58 pm 14:58 Sunny 60 15.8 28 -2 30 30 SSE 18 30 29.65 1004 10 16 0.00 0.00
3:58 pm 15:58 Sunny 60 15.8 29 -1.7 30 30 S 20 31 29.63 1003 10 16 0.00 0.00
4:58 pm 16:58 Sunny 59 15.1 33 0.7 38 38 SSE 21 33 29.64 1004 10 16 0.00 0.00
5:58 pm 17:58 Sunny 58 14.2 35 1.5 42 42 SSE 14 22 29.69 1005 10 16 0.00 0.00
6:58 pm 18:58 Mostly Cloudy 56 13.4 35 1.7 45 45 S 12 19 29.73 1007 10 16 0.00 0.00
7:58 pm 19:58 Mostly Cloudy 54 12.4 38 3.6 55 55 S 14 22 29.72 1006 10 16 0.00 0.00
8:58 pm 20:58 Mostly Clear 52 11.3 39 4 61 61 S 14 22 29.73 1007 10 16 0.00 0.00
9:58 pm 21:58 Clear 51 10.7 40 4.6 66 66 S 20 31 29.70 1006 10 16 0.00 0.00
10:58 pm 22:58 Clear 53 11.5 39 3.8 59 59 SSW 9 15 29.69 1005 10 16 0.00 0.00
11:58 pm 23:58 Clear 48 9.1 40 4.5 73 73 NNW 6 9 29.72 1006 10 16 0.00 0.00

Powered by AerisWeather